Dublin, Ireland

4:57 PM IST on June 27, 2017 (GMT +0100)
Dublin International

Weather History for EIDW - June, 2013

Change the Weather History Date:

Tuesday, June 18, 2013

  Actual Average Record
Temperature  
Mean Temperature 56 °F -  
Max Temperature 69 °F 65 °F 77 °F (2000)
Min Temperature 42 °F 51 °F 38 °F (2012)
Degree Days  
Heating Degree Days 10    
Growing Degree Days 6 (Base 50)    
Moisture  
Dew Point 51 °F    
Average Humidity 80    
Maximum Humidity 100    
Minimum Humidity 53    
Precipitation  
Precipitation 0.00 in 0.07 in - ()
Sea Level Pressure  
Sea Level Pressure 29.98 in    
Wind  
Wind Speed 5 mph ()    
Max Wind Speed 12 mph    
Max Gust Speed -    
Visibility 6.3 miles    
Events Fog    
Averages and records for this station are not official NWS values.
T = Trace of Precipitation, MM = Missing Value Source: Averaged Metar Reports

Daily Weather History Graph

Daily Weather History Graph

Search for Another Location

Airport or City:

Trip Planner

Search our weather history database for the weather conditions in past years. The results will help you decide how hot, cold, wet, or windy it might be!

Date:

Astronomy

Jun. 18, 2013 Rise Set
Actual Time 4:55 AM IST 9:56 PM IST
Civil Twilight 4:03 AM IST 10:49 PM IST
Nautical Twilight 2:28 AM IST 12:24 AM IST
Astronomical Twilight Sun does not set Sun does not set
Moon 3:48 PM IST (6/18) 1:39 AM IST (6/18)
Length of Visible Light 18h 46m
Length of Day
17h 00m
Waxing Gibbous, 68% of the Moon is Illuminated
Jun 18
Waxing Gibbous
Jun 23
Full
Jun 30
Last Quarter
Jul 8
New
Jul 16
First Quarter

Hourly Weather History & Observations

Time (IST) Temp. Windchill Dew Point Humidity Pressure Visibility Wind Dir Wind Speed Gust Speed Precip Events Conditions
12:00 AM 51.8 °F - 48.2 °F 88% 30.01 in 6.2 mi NE 4.6 mph - N/A   Partly Cloudy
12:30 AM 48.2 °F - 46.4 °F 93% 30.01 in 6.2 mi NE 4.6 mph - N/A   Partly Cloudy
1:00 AM 46 °F - 44 °F 92% 30.02 in 16 mi NW 2.2 mph - -   Scattered Clouds
1:00 AM 46.4 °F - 44.6 °F 93% 30.01 in 6.2 mi Variable 1.2 mph - N/A   Partly Cloudy
1:30 AM 44.6 °F 42.2 °F 44.6 °F 100% 30.01 in 6.2 mi NW 4.6 mph - N/A   Partly Cloudy
2:00 AM 46.4 °F 43.5 °F 46.4 °F 100% 30.01 in 6.2 mi NNW 5.8 mph - N/A   Partly Cloudy
2:30 AM 44.6 °F 43.1 °F 44.6 °F 100% 30.01 in 6.2 mi Variable 3.5 mph - N/A   Partly Cloudy
3:00 AM 44.6 °F - 44.6 °F 100% 30.01 in 6.2 mi Calm Calm - N/A   Partly Cloudy
3:30 AM 42.8 °F - 42.8 °F 100% 29.98 in 0.6 mi Calm Calm - N/A Fog Patches of Fog
4:00 AM 42.8 °F 41.1 °F 42.8 °F 100% 29.98 in 4.3 mi West 3.5 mph - N/A Fog Fog
4:30 AM 44.6 °F 42.2 °F 42.8 °F 93% 29.98 in 4.3 mi WNW 4.6 mph - N/A Fog Fog
4:55 AM 44.6 °F 42.2 °F 42.8 °F 93% 29.98 in 5.0 mi WNW 4.6 mph - N/A Fog Fog
5:30 AM 44.6 °F - 44.6 °F 100% 29.98 in 5.0 mi North 1.2 mph - N/A Fog Fog
6:00 AM 46.4 °F - 46.4 °F 100% 29.98 in 5.0 mi WNW 2.3 mph - N/A Fog Fog
6:30 AM 50.0 °F - 48.2 °F 94% 29.95 in 5.6 mi WNW 4.6 mph - N/A   Scattered Clouds
7:00 AM 50 °F - 50 °F 100% 29.98 in 9 mi West 4.5 mph - -   Mist
7:00 AM 50.0 °F - 50.0 °F 100% 29.98 in 6.2 mi West 4.6 mph - N/A   Scattered Clouds
7:30 AM 50.0 °F - 50.0 °F 100% 29.98 in 6.2 mi West 6.9 mph - N/A   Scattered Clouds
8:00 AM 51.8 °F - 50.0 °F 94% 29.98 in 6.2 mi WSW 5.8 mph - N/A   Mostly Cloudy
8:30 AM 53.6 °F - 53.6 °F 100% 29.98 in 5.6 mi West 6.9 mph - N/A   Mostly Cloudy
9:00 AM 59.0 °F - 53.6 °F 82% 29.98 in 6.2 mi West 6.9 mph - N/A   Scattered Clouds
9:30 AM 60.8 °F - 53.6 °F 77% 29.98 in 6.2 mi WNW 9.2 mph - N/A   Mostly Cloudy
10:00 AM 62.6 °F - 53.6 °F 72% 29.98 in 6.2 mi NW 9.2 mph - N/A   Mostly Cloudy
10:30 AM 60.8 °F - 53.6 °F 77% 29.98 in 6.2 mi NW 8.1 mph - N/A   Mostly Cloudy
11:00 AM 60.8 °F - 53.6 °F 77% 29.98 in 6.2 mi WNW 9.2 mph - N/A   Mostly Cloudy
11:30 AM 62.6 °F - 53.6 °F 72% 29.98 in 6.2 mi NW 4.6 mph - N/A   Mostly Cloudy
12:00 PM 60.8 °F - 53.6 °F 77% 29.95 in 6.2 mi WNW 8.1 mph - N/A   Mostly Cloudy
12:30 PM 62.6 °F - 53.6 °F 72% 29.95 in 6.2 mi WNW 8.1 mph - N/A   Mostly Cloudy
1:00 PM 64 °F - 53 °F 59% 29.98 in 12 mi WNW 6.7 mph - -   Scattered Clouds
1:00 PM 64.4 °F - 53.6 °F 68% 29.98 in 6.2 mi WNW 6.9 mph - N/A   Mostly Cloudy
1:30 PM 66.2 °F - 51.8 °F 60% 29.98 in 6.2 mi WNW 5.8 mph - N/A   Mostly Cloudy
2:00 PM 66.2 °F - 53.6 °F 64% 29.95 in 6.2 mi NW 5.8 mph - N/A   Mostly Cloudy
2:30 PM 66.2 °F - 53.6 °F 64% 29.95 in 6.2 mi WNW 6.9 mph - N/A   Mostly Cloudy
3:00 PM 68.0 °F - 53.6 °F 60% 29.95 in 6.2 mi WNW 8.1 mph - N/A   Mostly Cloudy
3:30 PM 69.8 °F - 51.8 °F 53% 29.98 in 6.2 mi NNW 6.9 mph - N/A   Scattered Clouds
4:00 PM 68.0 °F - 53.6 °F 60% 29.98 in 6.2 mi SE 11.5 mph - N/A   Scattered Clouds
4:30 PM 64.4 °F - 53.6 °F 68% 29.98 in 6.2 mi SE 9.2 mph - N/A   Scattered Clouds
5:00 PM 66.2 °F - 53.6 °F 64% 29.95 in 6.2 mi SE 8.1 mph - N/A   Partly Cloudy
5:30 PM 64.4 °F - 53.6 °F 68% 29.95 in 6.2 mi SE 10.4 mph - N/A   Partly Cloudy
6:00 PM 64.4 °F - 53.6 °F 68% 29.95 in 6.2 mi SE 8.1 mph - N/A   Scattered Clouds
6:30 PM 64.4 °F - 51.8 °F 64% 29.95 in 6.2 mi SSE 8.1 mph - N/A   Scattered Clouds
7:00 PM 66 °F - 53 °F 53% 29.96 in 25 mi SE 6.7 mph - -   Partly Cloudy
7:00 PM 66.2 °F - 53.6 °F 64% 29.95 in 6.2 mi SE 5.8 mph - N/A   Scattered Clouds
7:30 PM 64.4 °F - 53.6 °F 68% 29.98 in 6.2 mi SSE 3.5 mph - N/A   Scattered Clouds
8:00 PM 64.4 °F - 53.6 °F 68% 29.98 in 6.2 mi SE 5.8 mph - N/A   Scattered Clouds
8:30 PM 64.4 °F - 53.6 °F 68% 29.98 in 6.2 mi SSE 5.8 mph - N/A   Scattered Clouds
9:00 PM 66.2 °F - 51.8 °F 60% 29.98 in 6.2 mi SSE 5.8 mph - N/A   Mostly Cloudy
9:30 PM 62.6 °F - 55.4 °F 77% 29.98 in 6.2 mi NW 10.4 mph - N/A   Mostly Cloudy
10:00 PM 59.0 °F - 53.6 °F 82% 29.98 in 6.2 mi NW 8.1 mph - N/A   Scattered Clouds
10:30 PM 57.2 °F - 51.8 °F 82% 30.01 in 6.2 mi NW 5.8 mph - N/A   Scattered Clouds
11:00 PM 55.4 °F - 51.8 °F 88% 30.01 in 6.2 mi NNW 6.9 mph - N/A   Mostly Cloudy
11:30 PM 55.4 °F - 51.8 °F 88% 30.01 in 6.2 mi NW 8.1 mph - N/A   Mostly Cloudy